Location: Caltech
(34.1382°N, 118.1253°W)
Time: 22:13:22
(UTC-07:00)

RS-15 - Visible Passes

Search period start: 26 April 2017 00:00
Search period end: 06 May 2017 00:00
Orbit: 1882 x 2163 km, 64.8° (Epoch: 25 April)

Date Brightness Start Highest point End Pass type
(mag) Time Alt. Az. Time Alt. Az. Time Alt. Az.
26 Apr 10.6 19:57:29 10° WNW 20:01:12 12° W 20:04:52 10° WSW visible
28 Apr 10.2 05:13:30 10° SE 05:20:38 18° E 05:27:51 10° ENE visible
29 Apr 10.5 04:42:22 10° ESE 04:45:16 11° E 04:48:10 10° E visible
01 May 9.6 05:33:14 10° SSE 05:43:46 39° ESE 05:54:36 10° NE visible
02 May 9.9 04:58:48 10° SSE 05:08:11 28° ESE 05:17:45 10° NE visible
03 May 10.0 04:25:11 10° SE 04:32:41 19° E 04:40:18 10° ENE visible
04 May 10.2 03:53:22 10° ESE 03:57:18 12° E 04:01:16 10° ENE visible
05 May 8.9 05:20:12 10° S 05:31:35 54° ESE 05:43:21 10° NE visible
